Hourly Data Report for July 08, 2017

All times are specified in Local Standard Time (LST). Add 1 hour to adjust for Daylight Saving Time where and when it is observed.

LUTSELK'E CS
NORTHWEST TERRITORIES

62°24'56.030" N
110°41'25.070" W
178.90 m
220L002
71529
XLU

Download Data

Hourly Data (July 2017)
Hourly Data Report for July 8, 2017
Temp Definition
°C
Dew Point Temp Definition
°C
Rel Hum Definition
%
Wind Dir Definition
10's deg

Wind Spd Definition
km/h
Visibility Definition
km
Stn Press Definition
kPa
Hmdx Definition


Wind Chill Definition


Weather Definition


TIME
00:00 13.3 8.9 75 LegendMM LegendMM   99.58     LegendNANA
01:00 9.9 6.5 80 LegendMM LegendMM   99.64     LegendNANA
02:00 9.2 6.1 81 LegendMM LegendMM   99.66     LegendNANA
03:00 12.5 8.9 79 LegendMM LegendMM   99.64     LegendNANA
04:00 13.1 8.3 73 LegendMM LegendMM   99.61     LegendNANA
05:00 14.7 9.5 71 LegendMM LegendMM   99.63     LegendNANA
06:00 16.2 10.5 69 LegendMM LegendMM   99.61     LegendNANA
07:00 15.9 10.8 72 LegendMM LegendMM   99.60     LegendNANA
08:00 18.6 10.8 61 LegendMM LegendMM   99.58     LegendNANA
09:00 19.2 9.5 53 LegendMM LegendMM   99.58     LegendNANA
10:00 17.8 9.9 60 LegendMM LegendMM   99.56     LegendNANA
11:00 17.6 9.1 57 LegendMM LegendMM   99.55     LegendNANA
12:00 20.1 9.0 49 LegendMM LegendMM   99.52     LegendNANA
13:00 20.7 9.0 47 LegendMM LegendMM   99.50     LegendNANA
14:00 21.4 8.3 43 LegendMM LegendMM   99.46     LegendNANA
15:00 23.9 7.8 36 LegendMM LegendMM   99.42     LegendNANA
16:00 24.2 7.2 34 LegendMM LegendMM   99.38     LegendNANA
17:00 24.1 7.6 35 LegendMM LegendMM   99.35     LegendNANA
18:00 25.0 7.6 33 LegendMM LegendMM   99.30 25   LegendNANA
19:00 20.5 12.2 59 LegendMM LegendMM   99.28     LegendNANA
20:00 20.9 9.5 48 LegendMM LegendMM   99.27     LegendNANA
21:00 18.9 10.2 57 LegendMM LegendMM   99.27     LegendNANA
22:00 16.0 9.4 65 LegendMM LegendMM   99.27     LegendNANA
23:00 13.7 8.0 69 LegendMM LegendMM   99.28     LegendNANA

Notes on Data Quality.

Legend

  • E = Estimated
  • M = Missing
  • NA = Not Available
  • ‡ = Partner data that is not subject to review by the National Climate Archives
Date modified: